Meteo pe oră la Bolshie Ozeranki

Astăzi, 19 Mai, Miercuri

Timp Temperatura Precipitaţii Vânt Presiune Umiditate
00:00 +8°C° 0 mm 3 m/s 737 mmHg 93%
01:00 +8°C° 0 mm 3 m/s 737 mmHg 93%
02:00 +8°C° 0 mm 3 m/s 737 mmHg 93%
03:00 +7°C° 0 mm 4 m/s 737 mmHg 92%
04:00 +7°C° 0 mm 4 m/s 737 mmHg 91%
05:00 +6°C° 0 mm 4 m/s 737 mmHg 90%
06:00 +8°C° 0 mm 4 m/s 737 mmHg 86%
07:00 +9°C° 0 mm 5 m/s 738 mmHg 83%
08:00 +10°C° 0 mm 5 m/s 738 mmHg 79%
09:00 +11°C° 0 mm 6 m/s 738 mmHg 74%
10:00 +13°C° 0 mm 6 m/s 738 mmHg 70%
11:00 +14°C° 0 mm 6 m/s 739 mmHg 65%
12:00 +15°C° 0.1 mm 6 m/s 739 mmHg 66%
13:00 +15°C° 0.1 mm 6 m/s 739 mmHg 67%
14:00 +15°C° 0.1 mm 6 m/s 739 mmHg 68%
15:00 +15°C° 0.1 mm 6 m/s 739 mmHg 70%
16:00 +14°C° 0.1 mm 6 m/s 739 mmHg 72%
17:00 +14°C° 0.1 mm 6 m/s 740 mmHg 74%
18:00 +13°C° 0.1 mm 5 m/s 740 mmHg 78%
19:00 +12°C° 0.1 mm 4 m/s 740 mmHg 82%
20:00 +11°C° 0.1 mm 3 m/s 741 mmHg 86%
21:00 +10°C° 0 mm 3 m/s 741 mmHg 88%
22:00 +9°C° 0 mm 3 m/s 741 mmHg 91%
23:00 +8°C° 0 mm 3 m/s 741 mmHg 94%

Mâine, 20 Mai, Joi

Timp Temperatura Precipitaţii Vânt Presiune Umiditate
00:00 +8°C° 0 mm 3 m/s 741 mmHg 94%
01:00 +7°C° 0 mm 3 m/s 741 mmHg 95%
02:00 +7°C° 0 mm 3 m/s 741 mmHg 96%
03:00 +5°C° 0 mm 3 m/s 742 mmHg 97%
04:00 +5°C° 0 mm 3 m/s 742 mmHg 97%
05:00 +5°C° 0 mm 3 m/s 742 mmHg 97%
06:00 +8°C° 0 mm 3 m/s 742 mmHg 92%
07:00 +8°C° 0 mm 4 m/s 743 mmHg 87%
08:00 +10°C° 0 mm 4 m/s 743 mmHg 82%
09:00 +12°C° 0 mm 4 m/s 743 mmHg 76%
10:00 +13°C° 0 mm 4 m/s 743 mmHg 69%
11:00 +15°C° 0 mm 4 m/s 743 mmHg 63%
12:00 +15°C° 0 mm 4 m/s 743 mmHg 59%
13:00 +16°C° 0 mm 5 m/s 743 mmHg 56%
14:00 +16°C° 0 mm 5 m/s 743 mmHg 53%
15:00 +17°C° 0 mm 4 m/s 743 mmHg 55%
16:00 +17°C° 0 mm 4 m/s 743 mmHg 57%
17:00 +17°C° 0 mm 4 m/s 743 mmHg 59%
18:00 +15°C° 0 mm 4 m/s 743 mmHg 64%
19:00 +13°C° 0 mm 4 m/s 744 mmHg 69%
20:00 +12°C° 0 mm 4 m/s 744 mmHg 74%
21:00 +11°C° 0 mm 3 m/s 745 mmHg 78%
22:00 +9°C° 0 mm 3 m/s 745 mmHg 83%
23:00 +8°C° 0 mm 2 m/s 745 mmHg 87%

Poimâine, 21 Mai, Vineri

Timp Temperatura Precipitaţii Vânt Presiune Umiditate
00:00 +7°C° 0 mm 2 m/s 746 mmHg 89%
01:00 +7°C° 0 mm 2 m/s 746 mmHg 91%
02:00 +6°C° 0 mm 2 m/s 746 mmHg 93%
03:00 +6°C° 0 mm 2 m/s 746 mmHg 92%
04:00 +6°C° 0 mm 2 m/s 747 mmHg 91%
05:00 +6°C° 0 mm 2 m/s 747 mmHg 90%
06:00 +7°C° 0 mm 2 m/s 747 mmHg 82%
07:00 +9°C° 0 mm 2 m/s 747 mmHg 75%
08:00 +12°C° 0 mm 2 m/s 747 mmHg 67%
09:00 +13°C° 0 mm 2 m/s 747 mmHg 64%
10:00 +14°C° 0 mm 2 m/s 747 mmHg 61%
11:00 +15°C° 0 mm 2 m/s 747 mmHg 58%
12:00 +16°C° 0 mm 2 m/s 747 mmHg 54%
13:00 +17°C° 0 mm 2 m/s 747 mmHg 51%
14:00 +17°C° 0 mm 2 m/s 746 mmHg 48%
15:00 +17°C° 0 mm 2 m/s 746 mmHg 52%
16:00 +17°C° 0 mm 2 m/s 746 mmHg 56%
17:00 +17°C° 0 mm 2 m/s 746 mmHg 59%
18:00 +15°C° 0 mm 2 m/s 746 mmHg 65%
19:00 +13°C° 0 mm 3 m/s 746 mmHg 71%
20:00 +12°C° 0 mm 3 m/s 745 mmHg 77%
21:00 +11°C° 0 mm 3 m/s 745 mmHg 77%
22:00 +11°C° 0 mm 3 m/s 745 mmHg 77%
23:00 +10°C° 0 mm 4 m/s 745 mmHg 77%

22 Mai, Sâmbătă

Timp Temperatura Precipitaţii Vânt Presiune Umiditate
00:00 +10°C° 0 mm 4 m/s 745 mmHg 77%
01:00 +10°C° 0 mm 4 m/s 744 mmHg 76%
02:00 +10°C° 0 mm 4 m/s 744 mmHg 76%
03:00 +9°C° 0 mm 5 m/s 744 mmHg 76%
04:00 +9°C° 0 mm 5 m/s 744 mmHg 77%
05:00 +9°C° 0 mm 5 m/s 743 mmHg 77%
06:00 +10°C° 0 mm 5 m/s 743 mmHg 76%
07:00 +13°C° 0 mm 6 m/s 743 mmHg 74%
08:00 +14°C° 0 mm 6 m/s 743 mmHg 73%
09:00 +15°C° 0 mm 6 m/s 743 mmHg 68%
10:00 +17°C° 0 mm 6 m/s 743 mmHg 62%
11:00 +19°C° 0 mm 6 m/s 743 mmHg 57%
12:00 +20°C° 0 mm 6 m/s 743 mmHg 56%
13:00 +20°C° 0 mm 7 m/s 742 mmHg 54%
14:00 +21°C° 0 mm 7 m/s 742 mmHg 53%
15:00 +20°C° 0 mm 7 m/s 741 mmHg 56%
16:00 +20°C° 0 mm 7 m/s 741 mmHg 59%
17:00 +20°C° 0 mm 7 m/s 741 mmHg 62%
18:00 +19°C° 0.1 mm 6 m/s 740 mmHg 66%
19:00 +17°C° 0.1 mm 6 m/s 740 mmHg 69%
20:00 +15°C° 0.1 mm 6 m/s 740 mmHg 72%
21:00 +15°C° 0.6 mm 6 m/s 739 mmHg 78%
22:00 +14°C° 0.6 mm 5 m/s 739 mmHg 83%
23:00 +13°C° 0.6 mm 5 m/s 739 mmHg 89%

23 Mai, Duminică

Timp Temperatura Precipitaţii Vânt Presiune Umiditate
00:00 +13°C° 1 mm 5 m/s 739 mmHg 91%
01:00 +13°C° 1 mm 5 m/s 738 mmHg 92%
02:00 +11°C° 1 mm 6 m/s 738 mmHg 94%
03:00 +12°C° 0.3 mm 5 m/s 738 mmHg 94%
04:00 +12°C° 0.3 mm 5 m/s 738 mmHg 94%
05:00 +10°C° 0.3 mm 5 m/s 738 mmHg 94%
06:00 +12°C° 0.1 mm 5 m/s 738 mmHg 91%
07:00 +12°C° 0.1 mm 5 m/s 739 mmHg 88%
08:00 +12°C° 0.1 mm 5 m/s 739 mmHg 85%
09:00 +13°C° 0.1 mm 5 m/s 739 mmHg 80%
10:00 +13°C° 0.1 mm 5 m/s 740 mmHg 75%
11:00 +14°C° 0.1 mm 5 m/s 740 mmHg 70%
12:00 +15°C° 0.3 mm 5 m/s 740 mmHg 67%
13:00 +15°C° 0.3 mm 5 m/s 740 mmHg 64%
14:00 +16°C° 0.3 mm 5 m/s 741 mmHg 61%
15:00 +15°C° 0.5 mm 5 m/s 741 mmHg 66%
16:00 +15°C° 0.5 mm 5 m/s 741 mmHg 71%
17:00 +14°C° 0.5 mm 4 m/s 741 mmHg 76%
18:00 +13°C° 0.4 mm 4 m/s 742 mmHg 80%
19:00 +12°C° 0.4 mm 3 m/s 742 mmHg 84%
20:00 +12°C° 0.4 mm 2 m/s 742 mmHg 88%
21:00 +10°C° 0.1 mm 2 m/s 743 mmHg 89%
22:00 +9°C° 0.1 mm 2 m/s 743 mmHg 91%
23:00 +8°C° 0.1 mm 2 m/s 743 mmHg 92%

24 Mai, Luni

Timp Temperatura Precipitaţii Vânt Presiune Umiditate
00:00 +8°C° 0 mm 2 m/s 744 mmHg 93%
01:00 +8°C° 0 mm 3 m/s 744 mmHg 94%
02:00 +7°C° 0 mm 3 m/s 744 mmHg 95%
03:00 +7°C° 0 mm 3 m/s 744 mmHg 95%
04:00 +6°C° 0 mm 4 m/s 745 mmHg 96%
05:00 +6°C° 0 mm 4 m/s 745 mmHg 96%
06:00 +7°C° 0 mm 4 m/s 746 mmHg 91%
07:00 +8°C° 0 mm 5 m/s 746 mmHg 87%
08:00 +9°C° 0 mm 5 m/s 746 mmHg 82%
09:00 +10°C° 0.1 mm 6 m/s 747 mmHg 74%
10:00 +11°C° 0.1 mm 6 m/s 747 mmHg 66%
11:00 +12°C° 0.1 mm 7 m/s 747 mmHg 58%
12:00 +13°C° 0.1 mm 6 m/s 747 mmHg 58%
13:00 +13°C° 0.1 mm 6 m/s 747 mmHg 59%
14:00 +14°C° 0.1 mm 6 m/s 747 mmHg 59%
15:00 +13°C° 0.3 mm 6 m/s 747 mmHg 65%
16:00 +11°C° 0.3 mm 6 m/s 747 mmHg 71%
17:00 +11°C° 0.3 mm 6 m/s 747 mmHg 78%
18:00 +10°C° 0.1 mm 6 m/s 747 mmHg 81%
19:00 +9°C° 0.1 mm 5 m/s 747 mmHg 84%
20:00 +8°C° 0.1 mm 5 m/s 748 mmHg 87%
21:00 +8°C° 0 mm 4 m/s 748 mmHg 89%
22:00 +7°C° 0 mm 4 m/s 748 mmHg 92%
23:00 +7°C° 0 mm 3 m/s 748 mmHg 94%
Arată mai mult

Formular de consimțământ

Meteoprog și furnizorii noștri de servicii pot stoca și accesa date personale, precum cookies, identificatori de dispozitiv sau alte tehnologii similare pe dispozitivul dumneavoastră și procesa astfel de date pentru a personaliza conținutul și reclamele, dar și pentru a oferi caracteristici de social media și pentru a analiza traficul.

  • Stocarea și/sau accesarea informațiilor pe dispozitivul dumneavoastră

    Cookies, identificatori de dispozitiv sau alte informații pot fi stocate sau accesate pe dispozitiv în scopurile indicate mai sus.

  • Reclame și conținut personalizat, evaluarea reclamelor și a conținutului, informații despre audiențe și dezvoltarea produselor

    Reclamele și conținutul pot fi personalizate pe baza unui profil. Pot fi adăugate date suplimentare pentru a personaliza mai bine reclamele și conținutul. Performanța reclamelor și conținutului poate fi măsurată. Pot fi obținute informații despre utilizatorii care au văzut reclamele și conținutul. Aceste date pot fi utilizate pentru a dezvolta sau îmbunătăți experiența utilizatorilor, sistemele și software-ul.

Dând clic pe ‘Sunt de acord’, permiteți utilizarea cookie-urilor menționate, a identificatorilor de dispozitiv, balizelor web sau altor tehnologii similare. Setările pot fi modificate din browser-ul dispozitivului dumneavoastră.

În anumite scopuri, interesele legitime pot prima asupra consimțământului. Puteți citi mai multe informații în acest sens în Politica privind Confidențialitatea Datelor și Cookie.